TimeCST,TemperatureF,Dew PointF,Humidity,Sea Level PressureIn,VisibilityMPH,Wind Direction,Wind SpeedMPH,Gust SpeedMPH,PrecipitationIn,Events,Conditions,WindDirDegrees,DateUTC
12:55 AM,41.9,37.2,83,30.38,10.0,Calm,Calm,-,N/A,,Overcast,0,2013-01-05 06:55:00
1:55 AM,41.9,36.9,82,30.37,10.0,North,6.9,-,N/A,,Overcast,360,2013-01-05 07:55:00
2:55 AM,41.5,36.9,83,30.37,10.0,NNW,5.8,-,N/A,,Overcast,330,2013-01-05 08:55:00
3:12 AM,41.0,37.4,87,30.37,10.0,NNW,6.9,-,N/A,,Overcast,340,2013-01-05 09:12:00
3:27 AM,41.0,37.4,87,30.37,10.0,North,5.8,-,N/A,,Overcast,350,2013-01-05 09:27:00
3:34 AM,41.0,37.4,87,30.37,10.0,NW,5.8,-,N/A,,Overcast,320,2013-01-05 09:34:00
3:45 AM,41.0,37.4,87,30.37,10.0,NNW,4.6,-,N/A,,Overcast,330,2013-01-05 09:45:00
3:55 AM,41.4,36.9,84,30.37,10.0,North,4.6,-,N/A,,Overcast,350,2013-01-05 09:55:00
4:52 AM,41.0,37.4,87,30.35,10.0,NNW,3.5,-,N/A,Rain,Light Rain,330,2013-01-05 10:52:00
4:55 AM,41.5,37.4,85,30.34,10.0,North,4.6,-,0.00,Rain,Light Rain,350,2013-01-05 10:55:00
5:09 AM,41.0,37.4,87,30.33,10.0,North,4.6,-,N/A,,Overcast,10,2013-01-05 11:09:00
5:55 AM,41.9,37.0,83,30.34,10.0,Calm,Calm,-,0.00,,Overcast,0,2013-01-05 11:55:00
6:55 AM,42.1,35.8,78,30.35,10.0,North,3.5,-,N/A,,Overcast,360,2013-01-05 12:55:00
7:55 AM,42.6,36.1,78,30.36,10.0,Calm,Calm,-,N/A,,Overcast,0,2013-01-05 13:55:00
9:55 AM,44.8,37.9,77,30.37,10.0,Calm,Calm,-,N/A,,Overcast,0,2013-01-05 15:55:00
10:55 AM,46.8,38.1,72,30.35,10.0,Calm,Calm,-,N/A,,Overcast,0,2013-01-05 16:55:00
11:22 AM,48.2,37.4,66,30.35,10.0,Calm,Calm,-,N/A,,Overcast,0,2013-01-05 17:22:00
11:36 AM,48.2,37.4,66,30.34,10.0,Calm,Calm,-,N/A,,Overcast,0,2013-01-05 17:36:00
11:55 AM,48.7,39.0,69,30.33,10.0,Calm,Calm,-,N/A,,Overcast,0,2013-01-05 17:55:00
12:30 PM,51.8,39.2,62,30.30,10.0,Calm,Calm,-,N/A,,Scattered Clouds,0,2013-01-05 18:30:00
12:55 PM,53.4,40.8,62,30.28,7.0,Calm,Calm,-,N/A,,Clear,0,2013-01-05 18:55:00
1:24 PM,55.4,41.0,58,30.25,9.0,SW,4.6,-,N/A,,Mostly Cloudy,220,2013-01-05 19:24:00
1:36 PM,55.4,41.0,58,30.25,4.0,Calm,Calm,-,N/A,,Haze,0,2013-01-05 19:36:00
1:55 PM,55.4,41.2,59,30.24,4.0,SE,3.5,-,N/A,,Haze,140,2013-01-05 19:55:00
1:57 PM,55.4,41.0,58,30.24,5.0,Variable,4.6,-,N/A,,Haze,0,2013-01-05 19:57:00
2:08 PM,57.2,41.0,55,30.23,4.0,Calm,Calm,-,N/A,,Haze,0,2013-01-05 20:08:00
2:13 PM,57.2,41.0,55,30.23,2.5,East,4.6,-,N/A,,Haze,80,2013-01-05 20:13:00
2:55 PM,57.9,41.0,53,30.22,10.0,Variable,3.5,-,N/A,,Clear,0,2013-01-05 20:55:00
3:55 PM,58.8,41.9,53,30.22,10.0,Calm,Calm,-,N/A,,Clear,0,2013-01-05 21:55:00
4:11 PM,59.0,41.0,51,30.22,10.0,Calm,Calm,-,N/A,,Clear,0,2013-01-05 22:11:00
4:55 PM,58.8,42.1,54,30.22,10.0,Calm,Calm,-,N/A,,Clear,0,2013-01-05 22:55:00
5:06 PM,57.2,41.0,55,30.22,10.0,ESE,8.1,-,N/A,,Clear,120,2013-01-05 23:06:00
5:55 PM,52.2,40.6,65,30.23,10.0,ESE,5.8,-,N/A,,Clear,110,2013-01-05 23:55:00
6:55 PM,49.1,40.1,71,30.25,10.0,ESE,10.4,-,N/A,,Clear,120,2013-01-06 00:55:00
7:55 PM,46.0,39.9,79,30.27,10.0,SE,6.9,-,N/A,,Clear,130,2013-01-06 01:55:00
8:55 PM,41.5,37.4,85,30.28,10.0,Calm,Calm,-,N/A,,Clear,0,2013-01-06 02:55:00
9:55 PM,37.9,34.9,89,30.30,10.0,Calm,Calm,-,N/A,,Clear,0,2013-01-06 03:55:00
10:55 PM,35.2,33.3,92,30.30,8.0,Calm,Calm,-,N/A,,Clear,0,2013-01-06 04:55:00
11:55 PM,36.9,34.9,93,30.31,7.0,NW,3.5,-,N/A,,Clear,310,2013-01-06 05:55:00